Weather History for Bloemfontein, South Africa

Change the Weather History Date:

Saturday, August 17, 2013

  Actual Average Record
Temperature  
Mean Temperature 49 °F -  
Max Temperature 70 °F 69 °F 77 °F (1997)
Min Temperature 28 °F 35 °F 19 °F (2001)
Degree Days  
Heating Degree Days 16    
Moisture  
Dew Point 22 °F    
Average Humidity 36    
Maximum Humidity 69    
Minimum Humidity 5    
Precipitation  
Precipitation 0.00 in 0.03 in - ()
Sea Level Pressure  
Sea Level Pressure 30.07 in    
Wind  
Wind Speed 4 mph ()    
Max Wind Speed 18 mph    
Max Gust Speed 24 mph    
Visibility 12.0 miles    
Events      
Averages and records for this station are not official NWS values.
T = Trace of Precipitation, MM = Missing Value Source: Averaged Metar Reports

Daily Weather History Graph

Daily Weather History Graph

Search for Another Location

Airport:

Trip Planner

Search our weather history database for the weather conditions in past years. The results will help you decide how hot, cold, wet, or windy it might be!

Date:

Astronomy

Aug. 17, 2013 Rise Set
Actual Time 6:45 AM SAST 5:52 PM SAST
Civil Twilight 6:21 AM SAST 6:17 PM SAST
Nautical Twilight 5:53 AM SAST 6:44 PM SAST
Astronomical Twilight 5:25 AM SAST 7:12 PM SAST
Moon 2:09 PM SAST (8/17) 3:12 AM SAST (8/17)
Length of Visible Light 11h 55m
Length of Day
11h 07m
Waxing Gibbous, 82% of the Moon is Illuminated
Aug 17
Waxing Gibbous
Aug 21
Full
Aug 28
Last Quarter
Sep 5
New
Sep 12
First Quarter

Hourly Weather History & Observations

Time (SAST) Temp. Windchill Dew Point Humidity Pressure Visibility Wind Dir Wind Speed Gust Speed Precip Events Conditions
12:00 AM 37.4 °F - 19.4 °F 48% 30.12 in 6.2 mi Calm Calm - N/A   Unknown
1:00 AM 35.6 °F - 19.4 °F 52% 30.12 in 6.2 mi South 2.3 mph - N/A   Unknown
2:00 AM 33 °F - 20 °F 45%  in - Calm Calm - -  
2:00 AM 32.0 °F - 21.2 °F 64% 30.09 in - Calm Calm - N/A   Unknown
3:00 AM 33.8 °F - 19.4 °F 56% 30.09 in 6.2 mi Variable 1.2 mph - N/A   Unknown
4:00 AM 33.8 °F - 19.4 °F 56% 30.09 in 6.2 mi Variable 1.2 mph - N/A   Unknown
5:00 AM 33 °F - 21 °F 49%  in 19 mi NNE 2.3 mph - -  
5:00 AM 33.8 °F - 21.2 °F 60% 30.06 in - NNE 2.3 mph - N/A   Clear
6:00 AM 30.2 °F - 19.4 °F 64% 30.09 in - Variable 2.3 mph - N/A   Clear
7:00 AM 30.2 °F - 21.2 °F 69% 30.09 in - Calm Calm - N/A   Clear
7:44 AM 35.6 °F - 21.2 °F 56% 30.09 in - Variable 2.3 mph - N/A   Clear
8:00 AM 37.4 °F - 21.2 °F 52% 30.12 in - Variable 2.3 mph - N/A   Clear
8:03 AM 41.0 °F - 23.0 °F 49% 30.12 in - Calm Calm - N/A   Clear
8:44 AM 46.4 °F 45.2 °F 23.0 °F 40% 30.12 in - NE 3.5 mph - N/A   Clear
9:00 AM 48.2 °F - 23.0 °F 37% 30.12 in - NNE 3.5 mph - N/A   Clear
9:12 AM 51.8 °F - 24.8 °F 35% 30.12 in - NE 4.6 mph - N/A   Clear
9:43 AM 59.0 °F - 24.8 °F 27% 30.12 in - NW 6.9 mph - N/A   Clear
10:00 AM 57.2 °F - 24.8 °F 29% 30.12 in - NW 10.4 mph - N/A   Clear
11:00 AM 63 °F - 20 °F 10%  in 19 mi West 9.2 mph - -   Clear
11:00 AM 62.6 °F - 21.2 °F 20% 30.09 in - West 8.1 mph - N/A   Clear
12:00 PM 64.4 °F - 26.6 °F 24% 30.06 in - WNW 11.5 mph - N/A   Clear
1:00 PM 68.0 °F - 24.8 °F 20% 30.04 in - WNW 18.4 mph - N/A   Clear
2:00 PM 69 °F - 16 °F 6%  in 19 mi West 12.7 mph - -   Clear
2:00 PM 68.0 °F - 17.6 °F 15% 30.01 in - West 12.7 mph 24.2 mph N/A   Clear
3:00 PM 69.8 °F - 21.2 °F 16% 30.01 in - West 17.3 mph - N/A   Clear
4:00 PM 69.8 °F - 23.0 °F 17% 29.98 in - WNW 17.3 mph - N/A   Clear
5:00 PM 67 °F - 13 °F 5%  in 19 mi West 11.5 mph - -   Clear
5:00 PM 66.2 °F - 14.0 °F 13% 29.98 in - West 11.5 mph - N/A   Clear
6:00 PM 62.6 °F - 21.2 °F 20% 29.98 in - WSW 9.2 mph - N/A   Clear
7:00 PM 57.2 °F - 21.2 °F 25% 29.98 in - WSW 5.8 mph - N/A   Clear
8:00 PM 56 °F - 15 °F 10%  in 19 mi SW 6.9 mph - -   Clear
8:00 PM 55.4 °F - 15.8 °F 21% 30.01 in - SW 5.8 mph - N/A   Clear
9:00 PM 51.8 °F - 26.6 °F 38% 30.04 in 6.2 mi WSW 11.5 mph - N/A   Unknown
10:00 PM 50.0 °F - 32.0 °F 50% 30.04 in 6.2 mi WSW 8.1 mph - N/A   Unknown
11:00 PM 50 °F - 31 °F 37%  in - SSW 6.9 mph - -  
11:00 PM 48.2 °F - 32.0 °F 54% 30.04 in - SSW 6.9 mph - N/A   Unknown